CAPE
133 109 111 162 73 174 117 19 19 15 9 12 32 44 48 90 349 514 589 455 299 417 497 513 639 782 401 456 539 489 284 147 16 6 4 9 5 3 2 2 1 3 9
66 129 98 168 203 198 103 6 16 9 6 23 27 40 36 122 279 454 254 190 332 440 569 469 503 629 548 495 300 204 116 26 0 2 10 15 5 4 2 28 29 7 0
71 72 128 83 210 177 89 11 9 5 11 19 27 23 58 165 334 170 191 201 346 457 475 517 499 492 561 338 142 96 53 11 4 1 48 31 7 3 37 16 45 17 28
32 62 65 115 70 221 15 18 17 6 7 25 23 27 54 119 213 217 36 202 255 271 319 476 444 583 439 192 50 23 19 24 6 21 20 33 17 41 5 7 5 5 7
24 59 138 115 90 29 21 19 22 18 25 26 23 36 65 117 103 268 283 255 65 158 310 346 177 134 249 136 0 29 24 16 18 28 23 19 22 19 0 0 0 0 0
18 37 47 26 22 28 21 17 19 26 25 21 18 37 58 20 0 0 64 221 120 121 72 14 13 31 14 23 47 10 4 1 12 8 6 5 3 1 0 0 0 0 0
27 37 5 11 15 31 33 13 26 27 14 18 26 67 130 0 0 0 0 368 336 270 138 80 33 4 8 9 1 1 4 3 0 1 0 1 0 14 0 0 0 0 0
24 25 3 32 69 37 43 106 193 396 354 330 157 172 115 0 0 0 0 354 312 223 212 126 47 38 26 33 21 31 22 17 0 0 0 0 1 11 57 0 0 7 0
3 34 3 94 104 144 126 234 338 594 628 405 377 285 108 0 0 0 0 174 95 150 173 128 89 47 0 1 28 2 0 0 0 0 0 2 0 64 64 0 9 4 0
0 28 22 80 71 47 122 314 348 390 330 337 316 279 31 0 0 0 0 66 188 76 109 71 8 6 0 3 21 0 0 0 0 0 0 0 24 69 0 7 1 0 4
0 38 61 119 91 275 129 178 193 129 117 395 343 196 72 47 0 0 0 137 133 73 29 20 1 0 1 9 5 0 1 0 0 10 2 6 35 6 0 0 10 148 67
0 15 102 147 144 348 321 48 7 31 179 411 334 125 39 34 0 0 0 37 20 27 13 10 0 0 0 0 42 31 11 12 33 28 44 99 22 0 0 25 106 188 226
0 0 32 166 120 295 293 3 0 14 242 317 293 184 56 30 0 0 0 0 5 189 15 1 0 0 0 0 0 0 0 6 2 1 1 0 0 0 31 291 270 47 15
0 0 0 17 64 186 50 0 0 0 110 169 196 187 164 78 12 1 0 1 0 0 0 0 0 0 0 0 0 0 1 22 26 29 11 3 20 234 205 163 33 0 0
0 0 0 0 25 109 43 8 0 0 0 14 57 125 155 116 82 24 5 12 33 11 1 0 0 0 0 0 0 0 24 28 36 28 2 10 50 100 49 24 0 0 0
0 0 0 0 8 50 82 98 0 0 0 0 0 18 78 44 21 5 0 0 0 0 5 0 0 0 7 0 0 0 0 0 1 0 0 0 0 0 0 0 0 0 0
0 0 0 0 0 132 50 139 96 0 0 0 0 0 0 12 11 0 0 0 0 0 34 12 12 7 10 6 3 0 0 0 0 0 6 0 0 0 0 0 0 0 0
0 0 0 0 0 0 72 142 167 104 25 0 0 0 0 0 0 0 0 0 0 0 0 45 34 16 4 2 1 0 0 0 0 0 0 0 0 0 0 0 0 0 0
0 0 0 0 0 0 0 0 40 63 85 11 0 0 0 0 0 0 0 0 0 0 0 0 0 0 0 0 0 0 0 0 0 0 0 0 0 0 0 0 0 0 0
0 0 0 0 0 0 0 0 0 0 0 0 0 0 0 0 0 0 0 0 0 0 0 0 0 0 0 0 0 0 0 0 0 0 0 0 0 0 0 0 0 0 0
0 0 0 0 0 0 0 0 0 0 0 0 0 0 0 0 0 0 0 0 0 0 0 0 0 0 0 0 0 0 0 0 0 0 0 0 0 0 0 0 0 0 0
126 19 0 0 0 0 0 0 0 0 0 0 0 0 0 0 0 0 0 0 0 0 0 0 0 0 0 0 0 0 0 0 0 0 0 0 0 0 0 0 0 0 0
395 206 60 0 0 0 0 0 0 0 0 0 0 0 0 0 0 0 0 0 0 0 0 0 0 0 0 0 0 0 0 0 0 0 0 0 0 0 0 0 0 0 0
481 381 344 16 0 0 0 0 0 0 0 0 0 0 0 0 0 0 0 0 0 0 0 0 0 0 0 0 0 0 0 0 0 0 0 0 0 0 0 0 0 0 0
422 480 547 248 11 0 0 0 0 0 0 0 0 0 0 0 0 0 0 0 0 0 0 0 0 0 0 0 0 0 0 0 0 0 0 0 0 0 0 0 0 0 0
277 382 680 481 152 30 2 1 0 0 0 0 0 0 0 0 0 0 0 0 0 0 0 0 0 0 0 0 0 0 0 0 0 0 0 0 0 0 0 0 0 0 0
CIN
-118 -92 -74 -30 -11 -1 -4 -1 -1 -2 -1 -2 -1 -1 -1 -4 -1 -1 0 -1 -4 -23 -6 -14 -1 0 -18 -18 -10 -13 -25 -33 -122 0 0 0 0 0 0 0 0 -1 -4
-132 -74 -63 -12 -1 -2 -4 -1 -1 -1 -2 -1 -1 -1 -1 -6 -2 -1 -5 -10 -5 -2 0 -4 -1 -1 -6 -5 -18 -28 -41 -56 -4 0 -7 -8 -9 -39 0 -3 -3 -15 0
-112 -80 -29 -3 0 -1 -10 -7 -1 -1 -2 -2 -1 -2 -3 -4 -4 -12 -19 -8 -1 -1 -2 -1 -1 -4 -13 -8 -42 -22 -6 -45 -1 0 0 -3 -19 -33 -1 -1 0 -15 -4
-159 -99 -52 -11 -2 -3 -1 -1 -2 -1 -1 -2 -2 -7 -3 -3 -4 -2 -47 -4 -2 -2 -6 -13 -1 -8 -1 -20 -42 -11 -12 -1 -8 -11 -1 0 -3 0 -3 -7 -1 -3 -1
-184 -91 -16 -12 -2 -3 -2 -2 0 -2 -1 -5 -7 -2 -1 -4 -11 -1 -2 -1 -35 -15 -4 -4 -41 -79 -20 -35 0 -34 -19 -11 -11 -7 -1 0 0 0 0 0 0 0 0
-199 -130 -48 -46 -19 -12 -1 -4 -8 -6 -5 -2 -4 -6 -8 -7 0 0 -43 -3 -7 -8 -28 -72 -79 -66 -81 -50 -26 -19 -19 0 -25 -27 -11 -23 -4 -10 -1 0 0 0 0
-193 -149 -150 -71 -18 -23 -9 -2 -4 -2 -4 -2 -2 -5 -2 0 0 0 -21 -1 -1 -1 -2 -6 -37 -72 -48 -48 -22 -9 -19 -19 -1 -48 0 -23 -32 -6 0 0 0 0 0
-236 -169 -86 -36 -16 -17 -5 -5 -2 -3 -3 -2 -2 -10 -8 0 0 0 0 -1 -1 -2 0 -2 -11 -10 -1 -9 -12 -1 -1 -3 0 0 -41 -39 -54 -46 -32 0 0 -3 0
-261 -178 -2 -21 -13 -4 -4 -2 -1 0 0 -2 -2 -1 -10 0 0 0 0 -2 -11 -1 -1 -3 -1 0 0 -4 -1 0 -6 0 0 0 -19 -34 0 -24 -10 0 -2 -1 0
-20 -192 -154 -71 -57 -41 -4 -1 -2 -2 -2 -12 -4 -2 -18 0 0 0 0 -5 -1 -7 -3 -2 -19 -30 0 -2 -4 -5 0 0 -3 0 0 -1 -40 -25 0 -2 -1 0 -2
0 -192 -131 -84 -82 -9 -26 -7 -2 -2 -2 -6 -2 -1 -22 -8 0 0 0 -1 -1 -1 -1 -1 -8 0 -27 -36 -58 -26 -27 0 0 -7 -2 -8 -4 -10 0 0 -15 -6 -7
0 -220 -108 -95 -77 -24 -15 -74 -79 -39 -4 -2 -1 -3 -10 -12 0 0 0 -3 -14 -3 -1 -8 0 0 0 0 -43 -39 -44 -25 -3 -4 -2 -1 -2 0 0 -7 -4 -33 -21
0 0 -175 -108 -101 -51 -47 -9 -14 -41 -20 -13 -11 -9 -34 -43 0 0 0 0 -46 -3 -5 -2 0 0 0 0 0 0 0 -1 -2 -1 0 0 0 0 -20 -2 -28 -105 -123
0 0 0 -179 -157 -102 -148 0 0 0 -88 -64 -44 -32 -42 -57 -87 -30 0 -18 0 0 0 0 0 0 0 0 0 0 -1 -1 -2 -5 -7 -1 -6 -6 -16 -32 -106 0 0
0 0 0 0 -224 -168 -182 -214 0 0 0 -86 -112 -81 -67 -74 -83 -146 -200 -147 -81 -143 -142 0 0 0 0 0 0 0 -3 -4 -6 -3 -2 -5 -40 -37 -46 -93 0 0 0
0 0 0 0 -283 -212 -185 -181 0 0 0 0 0 -55 -180 -241 -276 -315 0 0 0 0 -102 0 0 0 -1 0 0 0 0 0 -2 0 0 0 0 0 0 0 0 0 0
0 0 0 0 0 -188 -223 -183 -236 0 0 0 0 0 0 -384 -389 -6 0 0 0 0 -137 -138 -111 -1 -2 -2 -2 0 0 0 0 0 -25 0 0 0 0 0 0 0 0
0 0 0 0 0 0 -199 -189 -194 -275 -367 0 0 0 0 0 0 0 0 0 0 0 0 -136 -118 -112 -33 -1 -2 0 0 0 0 0 0 0 0 0 0 0 0 0 0
0 0 0 0 0 0 0 0 -132 -237 -277 -377 0 0 0 0 0 0 0 0 0 0 0 0 0 0 0 0 0 0 0 0 0 0 0 0 0 0 0 0 0 0 0
0 0 0 0 0 0 0 0 0 0 0 0 0 0 0 0 0 0 0 0 0 0 0 0 0 0 0 0 0 0 0 0 0 0 0 0 0 0 0 0 0 0 0
0 0 0 0 0 0 0 0 0 0 0 0 0 0 0 0 0 0 0 0 0 0 0 0 0 0 0 0 0 0 0 0 0 0 0 0 0 0 0 0 0 0 0
-132 -116 0 0 0 0 0 0 0 0 0 0 0 0 0 0 0 0 0 0 0 0 0 0 0 0 0 0 0 0 0 0 0 0 0 0 0 0 0 0 0 0 0
-84 -101 -156 0 0 0 0 0 0 0 0 0 0 0 0 0 0 0 0 0 0 0 0 0 0 0 0 0 0 0 0 0 0 0 0 0 0 0 0 0 0 0 0
-95 -81 -76 -184 0 0 0 0 0 0 0 0 0 0 0 0 0 0 0 0 0 0 0 0 0 0 0 0 0 0 0 0 0 0 0 0 0 0 0 0 0 0 0
-119 -111 -58 -92 -161 0 0 0 0 0 0 0 0 0 0 0 0 0 0 0 0 0 0 0 0 0 0 0 0 0 0 0 0 0 0 0 0 0 0 0 0 0 0
-202 -154 -60 -51 -115 -129 -82 -53 0 0 0 0 0 0 0 0 0 0 0 0 0 0 0 0 0 0 0 0 0 0 0 0 0 0 0 0 0 0 0 0 0 0 0
Wind_Speed
11 11 12 12 13 13 14 15 15 15 16 19 15 17 16 15 15 15 15 16 18 20 18 21 21 18 16 9 8 10 9 8 5 10 7 13 16 20 16 15 13 9 10
12 12 12 13 14 14 16 16 16 17 18 20 19 18 17 14 11 15 17 17 19 20 21 20 18 16 11 7 5 4 6 5 12 11 12 17 17 15 15 11 11 11 10
14 13 13 14 15 16 18 17 17 18 20 20 19 18 11 13 15 17 16 17 18 20 21 21 18 8 5 2 4 6 6 8 10 17 12 13 12 20 10 13 11 9 10
15 13 13 15 15 17 16 18 19 20 21 19 16 9 10 11 8 16 20 20 18 18 18 9 12 10 2 1 12 18 18 12 20 17 21 23 22 21 14 22 10 6 6
15 12 14 16 17 17 17 18 20 21 21 12 9 10 9 10 9 9 5 18 23 19 14 6 8 10 6 20 28 28 30 33 20 17 18 20 40 32 31 26 30 27 7
17 15 16 18 19 18 17 14 19 20 20 8 10 8 16 9 9 9 9 22 24 16 9 5 5 4 1 24 30 30 31 39 19 26 29 33 34 36 35 34 27 23 19
19 18 18 20 20 19 20 19 20 16 17 20 14 7 8 11 10 10 11 22 24 23 26 11 4 4 2 16 22 29 33 33 39 28 29 35 34 33 27 28 26 23 19
21 20 22 22 22 23 22 22 20 12 8 11 12 7 10 13 13 12 15 22 23 25 27 21 2 9 14 20 20 22 28 26 29 22 10 25 29 29 29 28 30 17 14
23 22 25 24 23 24 23 22 21 20 20 20 22 16 11 11 12 12 16 19 24 26 27 24 7 12 18 28 25 15 14 15 21 27 20 28 33 33 31 27 23 21 22
24 25 26 24 24 24 23 22 22 22 22 22 22 21 8 9 13 13 16 8 22 25 24 24 18 12 7 27 31 27 29 28 33 35 37 33 32 30 30 28 24 21 19
25 26 27 25 25 24 23 23 23 22 23 21 20 20 17 12 14 13 11 7 17 22 15 20 4 11 8 35 34 32 31 31 32 33 33 32 30 28 26 26 24 6 14
25 25 26 26 25 23 23 23 23 23 23 24 26 27 21 13 12 11 8 11 14 20 21 16 11 8 24 19 32 29 30 31 33 31 29 28 25 24 23 18 11 10 10
26 25 25 25 25 24 24 24 24 24 25 25 25 26 27 27 23 20 19 19 19 22 17 16 31 19 11 11 18 27 33 31 30 28 26 24 22 20 14 11 9 11 12
25 25 25 24 25 25 25 25 24 25 24 26 27 26 26 26 27 27 29 28 29 28 33 33 30 27 24 29 30 31 28 26 24 23 21 18 16 12 11 9 8 8 9
25 24 25 25 26 26 27 26 25 25 25 25 25 27 28 27 28 30 31 31 30 31 31 30 29 29 28 28 27 25 21 19 21 16 15 13 12 12 10 9 8 7 7
23 24 24 25 26 27 27 26 20 22 24 18 16 20 26 25 28 29 29 28 25 27 26 26 26 25 24 23 22 22 19 21 18 14 13 13 13 12 9 8 6 5 5
22 21 23 25 23 27 27 27 26 25 23 24 21 17 18 24 25 26 26 25 23 24 24 22 22 23 23 23 23 22 19 19 17 15 11 11 9 8 7 6 4 3 2
20 19 21 23 20 24 25 26 24 21 23 24 27 10 6 17 19 20 21 20 21 23 22 20 20 18 20 21 21 20 18 15 14 14 12 11 10 8 4 3 2 2 2
17 18 19 14 21 18 21 24 24 21 18 19 18 9 3 6 10 14 17 17 17 19 20 21 19 20 22 22 20 17 14 11 11 12 9 6 5 4 3 3 3 2 1
18 19 15 15 14 12 16 15 18 20 16 16 15 14 8 7 9 11 13 16 17 18 18 20 22 21 20 18 16 14 12 10 8 7 8 9 7 8 6 5 5 5 5
14 16 17 17 11 13 12 11 10 11 12 12 12 10 12 15 16 15 13 15 17 18 19 19 19 19 16 13 11 10 10 8 9 9 9 11 10 8 7 7 7 6 6
12 12 14 15 13 11 9 12 11 11 10 10 9 6 14 10 12 13 13 13 16 18 20 17 16 15 13 12 10 10 10 10 11 10 10 10 9 8 8 8 8 7 7
16 14 12 13 13 10 9 11 11 11 11 10 8 7 10 10 9 9 9 8 10 12 15 17 13 12 10 8 9 10 11 11 9 8 8 9 9 10 9 9 10 9 10
18 17 16 14 14 12 10 10 10 10 10 9 8 9 8 9 9 10 8 7 7 8 8 9 10 12 9 9 9 9 10 10 9 10 11 10 10 10 10 10 10 10 9
19 19 18 17 17 19 16 13 12 11 11 11 10 11 11 10 10 10 10 11 11 10 10 10 10 10 12 14 12 12 10 10 11 10 10 11 11 11 10 11 10 9 9
21 20 20 19 19 18 21 19 16 14 14 13 13 13 12 13 13 13 13 13 14 14 15 16 14 13 11 11 15 14 12 11 11 12 11 11 9 10 11 11 10 10 9
Wind_Direction
69 70 52 53 65 67 78 95 86 92 100 148 104 218 210 215 207 133 129 140 156 177 226 217 227 243 250 280 286 262 251 232 184 209 168 128 113 112 123 118 127 170 136
82 66 53 63 74 92 112 96 98 111 140 194 180 209 213 343 264 138 121 124 138 164 192 216 235 241 262 269 272 304 253 149 116 114 147 109 114 117 116 129 156 158 143
94 71 57 69 100 112 121 100 113 117 157 209 202 198 318 331 9 30 36 93 163 157 173 207 223 254 266 332 37 22 20 93 122 129 161 158 134 113 138 130 149 159 187
94 73 55 69 78 95 91 105 122 135 154 212 222 331 332 354 303 28 64 128 161 178 179 233 218 230 38 195 75 74 81 112 125 152 115 112 111 177 120 104 117 158 161
89 55 60 72 82 81 84 102 118 127 164 251 285 8 269 253 287 294 2 140 119 157 181 270 242 233 231 101 112 105 109 119 119 121 116 114 123 131 114 109 111 110 88
98 71 80 84 92 84 74 63 105 118 112 287 269 338 215 269 260 296 302 125 121 168 5 291 264 334 304 109 116 110 111 131 124 122 118 120 122 126 127 126 115 107 98
104 92 91 95 88 94 99 93 102 76 95 117 113 306 289 248 253 258 209 110 121 132 113 36 239 254 36 86 95 107 116 128 149 126 120 127 127 130 114 118 114 109 99
111 104 111 111 110 115 113 119 114 61 356 267 247 331 270 251 244 247 192 98 112 123 121 94 201 50 76 91 94 96 108 107 120 119 136 119 123 123 123 124 133 92 83
121 116 128 117 113 122 128 128 114 110 121 178 182 225 255 253 253 239 206 69 118 128 132 153 166 67 84 101 99 93 94 95 117 121 116 130 138 146 141 122 114 108 114
127 131 138 129 125 124 134 136 136 129 129 123 173 196 267 258 242 239 212 15 89 91 138 141 72 76 175 98 105 100 110 118 124 135 146 158 151 136 154 148 123 112 116
131 133 138 130 130 116 124 124 132 138 121 153 165 183 208 237 225 227 233 30 80 89 60 81 155 187 90 132 110 103 105 111 122 131 143 156 142 138 134 144 143 93 113
135 132 136 133 143 125 127 137 140 136 134 140 125 122 151 211 223 226 246 219 203 83 84 83 179 176 169 178 146 112 112 119 132 130 132 133 127 129 131 126 82 25 30
139 136 136 137 152 132 142 141 140 146 138 138 138 141 142 138 161 183 186 182 180 173 86 98 151 177 192 197 92 109 126 133 128 127 126 126 126 125 107 90 63 46 31
138 139 140 139 148 143 152 152 152 151 151 143 134 146 149 148 147 156 156 157 152 159 121 140 153 162 171 118 121 131 149 127 125 122 120 117 114 100 104 96 78 55 40
143 143 145 149 155 152 166 164 167 163 160 160 156 141 142 145 145 145 142 145 144 142 133 143 148 148 137 135 131 135 125 118 133 111 111 106 110 112 109 105 98 85 59
147 149 151 153 156 160 166 169 215 198 193 208 209 184 160 149 120 131 139 139 126 125 136 137 144 145 141 138 136 137 127 139 133 119 119 126 125 124 114 112 100 93 63
153 150 154 161 152 166 164 164 159 200 213 211 217 226 210 122 125 131 136 130 126 137 149 140 142 151 153 157 159 155 149 148 147 141 132 135 132 132 122 118 111 103 67
157 156 158 162 155 165 165 166 160 151 155 161 189 270 64 121 126 130 130 125 135 154 160 153 153 150 158 165 166 166 163 156 156 157 151 150 151 147 130 133 123 89 29
156 159 163 154 165 158 163 170 167 161 154 156 151 136 105 106 121 134 140 146 148 157 164 174 162 167 172 175 173 168 168 167 165 169 170 168 171 188 213 207 222 254 292
166 166 161 162 162 164 165 163 165 168 160 160 160 160 162 155 150 153 159 166 169 169 173 179 184 179 175 172 171 171 173 176 179 184 189 195 203 206 222 242 252 268 280
175 172 171 171 167 170 173 176 177 173 169 167 168 172 167 172 172 173 175 180 184 186 185 183 183 186 182 178 178 180 185 188 193 200 206 204 210 229 242 267 264 277 295
202 191 183 181 176 175 183 180 181 183 185 184 184 215 176 180 182 184 184 186 190 193 194 191 190 190 192 195 196 197 198 201 202 204 208 215 224 235 252 258 266 273 282
221 214 208 200 193 191 190 183 188 187 189 191 201 204 190 197 202 208 212 211 199 194 194 197 200 203 209 219 219 217 215 216 225 229 233 236 233 237 244 258 265 276 272
223 227 224 226 228 229 222 209 200 203 200 209 228 234 226 222 226 217 229 230 231 231 222 222 224 219 229 229 234 234 229 236 238 235 229 238 244 254 256 266 276 281 286
236 232 233 229 237 243 244 233 227 228 225 231 241 240 246 243 243 243 245 251 261 249 248 252 258 241 226 221 223 222 237 233 234 250 262 251 254 266 269 271 285 289 283
241 242 244 235 234 239 246 245 241 231 238 236 243 251 247 252 254 253 252 251 252 259 261 270 264 245 249 242 223 227 241 260 260 257 268 280 273 265 271 278 274 281 289